Theta_e
297 297 300 300 301 302 301 301 302 303 304 305 306 307 308 310 309 310 311 312 313 314 315 315 315 314 313 312 311 310 309 308 307 306 305 304 304 303 303 301 300 301
294 295 297 297 298 298 300 300 301 302 303 303 305 305 304 304 306 309 310 311 311 312 313 313 313 314 313 312 311 310 309 307 306 306 304 303 304 303 303 302 301 301
292 293 294 296 299 298 299 299 301 302 303 303 303 302 304 304 306 307 308 309 310 310 311 312 312 312 312 312 310 310 309 307 306 304 304 303 303 302 303 302 301 300
290 292 295 295 296 296 297 297 297 298 298 299 302 303 305 304 305 306 307 306 308 308 309 309 310 311 312 312 310 310 309 308 308 305 304 304 303 303 303 303 302 300
291 291 291 292 294 294 294 296 297 298 299 301 300 300 302 303 304 304 305 306 307 307 307 308 309 310 311 311 311 310 309 309 308 306 305 305 304 304 304 303 302 301
290 291 291 292 293 293 294 296 297 297 298 296 300 300 301 303 304 304 304 305 305 306 306 307 308 309 310 310 310 311 310 309 309 307 306 306 305 304 304 303 303 302
291 290 291 290 291 291 293 294 295 295 297 299 296 298 299 300 301 303 303 304 304 304 305 305 306 307 308 309 309 309 310 309 308 307 307 307 306 303 304 303 303 302
289 288 288 289 290 290 292 293 293 294 296 294 296 298 298 300 301 301 301 302 303 303 304 304 304 306 306 308 308 308 308 308 308 307 307 307 306 304 303 303 303 302
289 290 290 290 290 290 290 292 292 292 292 295 296 296 296 299 300 300 300 301 301 301 302 303 304 304 304 306 307 307 307 306 307 306 307 307 306 305 304 303 302 302
288 288 289 289 290 289 289 289 290 291 292 294 296 294 296 296 298 299 299 300 300 300 301 302 302 302 303 304 305 306 306 306 305 306 306 306 306 306 305 303 303 302
287 288 288 288 288 288 287 288 288 289 290 293 293 294 295 294 294 295 298 299 300 300 300 300 301 301 302 302 303 304 304 305 304 305 305 305 305 305 302 303 303 303
286 287 287 287 287 288 288 288 288 288 289 289 291 294 292 294 296 295 297 298 298 299 299 300 299 300 300 301 301 301 302 303 303 303 303 303 304 303 303 303 303 302
286 286 287 287 287 287 287 287 287 287 287 289 289 290 291 292 292 295 295 297 297 297 297 298 298 298 299 298 299 299 300 301 302 302 302 302 302 303 303 303 303 302
286 286 287 287 287 286 287 288 289 288 288 288 287 290 290 290 292 293 293 293 295 296 296 295 296 296 296 297 297 298 299 300 300 300 301 301 300 300 300 300 300 300
286 286 287 287 287 287 287 287 288 288 289 289 288 287 288 289 290 291 290 291 291 292 293 293 295 296 296 296 296 296 297 297 298 298 297 298 298 297 296 297 298 298
287 287 287 287 286 286 286 287 287 287 288 288 288 287 288 287 287 288 289 290 291 290 290 290 292 293 293 295 296 297 296 297 296 296 296 296 296 295 294 294 295 296
286 287 287 287 287 287 287 287 287 287 287 287 287 286 287 287 288 289 288 288 288 288 289 290 291 292 292 295 296 297 296 295 296 295 295 295 295 295 295 294 293 294
285 286 286 286 287 287 287 287 287 287 287 287 287 286 286 287 287 288 288 288 288 289 289 290 290 290 294 295 295 296 295 295 294 294 295 295 294 294 294 293 293 293
284 285 285 286 286 286 287 287 287 287 287 286 286 286 286 286 286 286 286 286 288 288 287 288 288 290 291 292 292 294 295 294 293 294 294 294 294 294 294 294 292 291
283 283 284 285 285 286 286 286 286 286 287 286 286 286 286 286 285 286 286 286 287 287 287 287 288 290 291 291 292 292 293 294 293 294 293 294 294 294 294 293 293 293
282 282 283 284 284 285 286 286 286 286 286 287 286 286 285 285 285 286 286 286 287 287 287 287 288 290 291 291 292 293 293 293 291 293 293 292 293 292 292 293 292 293
280 281 282 282 283 284 284 285 285 285 285 286 286 286 286 286 286 286 286 286 286 287 287 286 286 288 289 290 291 292 292 290 291 291 291 291 291 289 290 290 290 290
279 280 280 281 282 282 283 283 284 284 285 286 286 286 286 286 285 285 285 285 285 285 286 285 285 286 288 289 290 290 289 289 288 288 288 288 287 287 288 288 288 288
278 279 279 280 280 281 281 282 283 284 284 285 285 285 285 285 285 284 284 284 284 284 284 284 284 284 287 288 289 289 288 287 288 288 287 286 286 286 287 287 287 287
278 278 278 279 279 279 280 281 282 282 284 284 285 285 284 284 284 284 283 283 283 283 283 283 283 284 286 287 288 289 287 287 287 287 287 286 287 287 287 286 286 286
277 277 278 278 278 278 279 280 281 281 282 283 284 284 284 283 283 283 283 282 282 282 282 282 282 283 284 286 287 288 288 286 286 286 286 286 286 287 287 287 286 286
Wind_Speed
4 4 6 6 7 6 5 5 6 7 7 7 8 8 9 8 5 7 8 8 8 9 9 9 9 9 8 9 9 8 8 10 9 8 9 10 9 9 9 9 8 8
4 4 4 4 4 5 6 6 6 7 7 7 7 6 5 4 5 6 7 8 7 9 8 8 8 9 9 9 9 9 8 8 9 6 9 10 9 9 10 10 10 9
4 4 4 5 6 6 6 6 7 7 7 8 7 5 5 6 6 6 7 7 8 8 8 7 8 8 9 9 9 9 9 9 10 8 9 11 9 9 9 9 8 10
3 4 5 5 5 5 5 5 5 5 4 5 6 7 8 7 7 8 7 8 7 7 7 7 8 8 9 9 10 9 10 10 10 9 10 8 8 9 9 8 9 8
3 4 4 4 4 5 4 5 6 5 6 7 5 5 6 7 8 8 8 8 8 7 7 8 7 8 8 9 9 9 9 8 8 9 9 9 8 9 8 8 9 9
3 3 3 4 4 4 5 5 6 5 6 5 7 5 6 6 7 8 8 8 8 8 8 7 8 8 8 8 9 9 9 8 8 10 10 10 8 8 7 8 9 10
3 3 4 3 3 4 4 5 5 4 5 6 4 5 5 6 6 7 7 7 7 7 8 8 8 7 7 8 8 8 8 9 8 10 10 9 8 8 8 8 9 9
3 3 3 2 3 4 4 4 4 5 5 3 5 6 6 7 7 6 6 6 6 6 6 7 7 7 7 7 8 8 8 7 8 9 9 9 8 8 8 7 8 9
4 3 2 1 2 3 4 4 5 5 4 5 6 5 5 6 7 7 7 6 6 6 6 6 7 7 7 8 8 9 8 7 7 8 9 9 8 8 8 7 8 9
7 7 6 3 1 2 3 4 3 4 4 5 6 4 6 5 5 7 7 8 8 7 7 7 6 6 6 7 8 8 8 8 8 8 8 8 8 8 8 8 9 8
7 7 7 7 7 5 3 2 3 3 3 5 4 5 6 5 4 4 6 7 8 8 8 7 7 7 7 7 7 7 8 8 8 8 8 8 8 8 8 9 9 10
7 7 8 8 8 7 7 5 3 2 3 4 3 4 4 5 7 6 6 7 7 7 8 8 7 7 7 8 7 7 6 6 7 7 7 7 7 7 7 7 8 9
8 8 8 7 7 7 6 6 6 3 1 3 2 2 4 4 4 6 6 6 6 5 6 7 7 7 7 6 6 6 7 7 6 6 6 7 6 7 7 7 8 8
8 7 7 7 6 6 6 6 6 6 4 2 1 2 3 3 4 5 4 4 5 6 5 5 6 6 6 6 6 6 6 6 6 6 6 6 6 6 6 6 6 7
7 7 7 7 7 7 7 7 7 6 6 5 4 3 1 1 1 1 3 3 2 4 4 4 5 6 6 6 6 6 6 7 7 7 7 6 6 5 5 5 5 5
6 6 7 7 7 8 8 7 6 6 6 6 6 5 4 4 0 1 3 3 4 2 2 3 3 3 6 10 9 7 7 6 6 6 6 6 6 5 4 4 5 5
5 6 5 7 6 6 6 7 7 6 6 6 6 6 6 5 3 3 2 1 2 3 2 1 0 0 3 7 8 9 6 5 6 5 5 5 5 6 6 6 5 5
7 6 6 6 6 6 6 6 5 6 7 7 7 8 7 5 7 6 5 5 4 4 5 5 5 8 7 3 4 7 6 4 4 4 5 5 5 6 5 5 5 5
7 7 6 6 6 5 5 5 5 6 7 8 8 6 5 7 6 7 7 5 6 7 7 6 6 9 9 9 7 4 4 5 3 4 4 4 4 5 5 5 5 5
7 7 7 6 6 5 5 6 6 6 6 5 5 6 8 8 8 8 7 7 7 7 7 6 6 8 11 8 6 5 3 3 4 4 4 4 4 5 4 5 5 5
8 7 8 7 7 6 5 6 6 6 6 6 6 7 7 7 7 7 7 6 6 6 7 7 7 11 10 10 9 6 3 2 2 1 2 3 3 3 4 5 5 5
8 7 7 8 7 6 6 7 7 6 6 5 5 5 5 5 6 6 6 6 6 5 6 7 8 14 12 12 12 11 8 4 2 2 2 1 0 1 1 0 2 4
8 8 7 7 8 7 6 7 7 7 6 5 5 5 5 5 5 5 5 5 6 6 6 6 7 11 13 13 12 12 7 5 4 4 3 1 2 1 1 1 1 1
8 8 7 7 7 8 8 7 6 6 6 5 5 5 5 5 4 5 6 6 6 7 5 6 6 8 12 13 14 14 8 6 5 5 4 3 2 2 1 1 0 2
7 8 7 7 6 6 7 8 7 6 6 5 6 5 5 5 5 5 6 6 6 6 8 8 7 8 14 14 15 14 10 6 6 4 4 3 4 4 4 3 2 2
7 8 8 7 7 6 6 7 7 6 6 6 6 5 5 5 5 5 6 5 6 7 7 7 8 7 10 15 14 14 12 6 5 5 5 3 2 2 2 2 1 2
Wind_Direction
218 216 224 215 218 214 213 205 204 200 202 199 201 205 203 208 191 185 200 203 202 203 205 203 197 197 193 187 188 187 191 194 196 189 193 194 204 198 198 199 197 198
236 225 225 227 231 214 207 194 201 200 207 202 206 203 204 179 191 188 199 205 204 208 205 202 196 194 189 186 184 187 188 188 194 185 188 195 202 196 204 199 198 202
210 209 217 217 217 220 212 200 194 199 201 205 196 188 192 189 184 192 197 202 205 209 206 201 196 192 187 186 183 187 189 188 193 183 188 197 196 195 205 194 196 199
239 226 211 213 218 224 221 204 205 200 202 196 199 196 190 189 185 190 194 196 201 205 203 198 196 191 189 187 183 190 192 192 192 180 191 198 196 197 199 191 198 200
208 223 236 234 222 215 206 212 213 203 196 206 204 199 189 183 186 188 190 193 194 198 194 197 196 193 189 190 186 191 191 192 186 180 191 197 196 194 198 188 196 202
257 222 214 216 230 210 202 211 221 208 207 201 209 196 201 192 189 190 189 189 191 192 193 194 195 194 190 189 187 194 189 191 185 183 192 197 195 193 191 192 197 201
255 246 247 226 222 222 225 222 217 217 213 213 184 201 195 192 191 192 190 190 188 190 190 191 192 192 190 187 188 194 193 191 182 186 193 199 189 190 195 191 199 203
289 283 266 247 217 216 223 232 234 218 213 189 197 211 186 193 192 188 184 181 182 188 190 191 193 192 187 186 190 193 193 188 186 187 196 197 187 192 192 192 196 203
345 339 324 264 245 248 230 233 232 229 203 195 209 210 204 196 192 183 179 176 180 185 187 191 193 192 187 189 193 193 190 188 188 188 194 195 193 197 190 189 197 206
15 355 349 351 287 251 250 263 267 258 227 207 206 185 198 216 199 184 173 174 178 181 184 190 191 191 189 194 194 192 193 190 188 193 198 200 198 197 189 188 200 205
18 10 4 354 347 326 288 257 238 247 255 239 205 195 196 185 208 195 179 174 178 181 182 185 190 187 188 194 196 194 193 190 191 193 198 201 201 199 194 193 200 205
13 11 6 355 346 343 335 317 289 237 230 250 234 221 197 192 179 187 185 188 185 180 179 184 183 186 189 190 192 190 191 190 188 191 196 199 201 201 197 196 199 204
11 10 0 353 349 342 340 343 344 332 281 255 240 218 197 197 202 187 194 182 186 175 179 179 179 181 185 187 187 187 189 189 189 190 193 196 201 201 201 198 200 200
1 354 355 353 346 351 350 353 353 353 350 326 312 215 205 208 201 202 199 185 174 179 182 170 168 172 178 181 181 183 185 192 190 190 192 196 198 203 203 203 202 198
0 1 355 358 3 6 6 2 3 360 2 12 19 3 343 266 194 161 139 162 161 170 162 162 167 180 180 179 179 184 184 190 191 191 191 193 197 201 204 205 204 201
7 9 13 14 19 19 12 3 0 3 11 20 16 5 9 355 1 126 145 156 161 148 137 146 174 182 191 186 184 180 185 189 186 188 187 189 192 200 209 211 210 203
353 6 5 21 19 19 14 14 12 10 20 21 20 15 12 3 33 47 39 77 118 131 123 131 90 297 219 201 201 193 181 182 183 189 187 189 191 193 204 207 212 209
357 356 6 11 12 14 16 14 12 14 25 28 25 22 11 23 41 36 34 25 56 71 65 55 51 18 28 14 219 211 196 184 185 185 187 192 194 196 203 196 201 202
352 354 360 7 11 11 11 19 21 26 24 26 31 21 33 44 32 39 33 37 57 68 63 53 47 32 36 31 23 8 217 196 184 189 183 198 198 201 200 197 193 193
356 351 355 355 359 6 17 29 29 28 28 32 37 40 48 51 48 42 21 34 62 77 75 61 53 38 46 42 39 31 23 192 198 189 193 192 197 197 197 197 194 191
356 353 355 348 350 0 20 34 37 26 29 30 37 40 42 35 40 42 42 51 53 60 70 59 39 32 36 35 37 43 57 129 174 187 203 213 208 199 194 196 194 192
353 349 353 350 346 353 17 32 30 29 26 20 43 48 48 49 43 44 43 47 46 51 64 56 34 27 28 32 34 35 42 48 70 131 175 222 327 24 27 173 190 187
351 350 350 355 348 343 6 28 34 28 23 11 40 46 48 43 47 49 39 45 45 42 49 54 42 22 30 33 35 32 36 44 46 55 64 67 60 92 118 143 167 187
351 350 349 356 360 348 349 11 22 32 30 15 31 40 49 44 50 59 51 45 47 48 39 59 48 27 34 35 36 36 35 36 31 49 49 44 27 7 3 42 123 161
351 348 353 357 2 356 350 1 14 23 30 26 27 35 41 40 39 48 52 43 38 42 36 42 35 26 31 35 35 34 32 27 25 38 56 34 33 23 358 1 342 287
359 352 352 359 0 358 2 359 351 10 29 34 30 28 32 37 40 41 50 47 37 37 39 37 33 26 21 26 31 31 31 33 25 33 25 10 18 24 17 0 335 314